ONEWEB-0050, 45453

Orbit data source: Space-Track

ONEWEB-0050, 45453 is a payload satellite owned by One Web (UK) in LEO that was launched on Sat, 21 Mar 2020 UTC via a SOYUZ-2-1B launch vehicle from the Tyuratam Missile And Space Complex (TTMTR). Payload-class satellites include a variety of spacecraft equipped with specific instruments for various scientific and technological missions. These include communications satellites like Starlink; space stations such as the ISS; scientific satellites like the Hubble; Earth observation satellites from companies like Planet Labs, Umbra, and HawkEye 360; GPS; miniature CubeSats for education and research; and military/defense satellites.

Loading next visibility...
Identifier
45453, 2020-020AF
Orbit
LEO
Country
Flag of UKUK
Related business
Manufacturer
One Web
Mission
Partially operational Commercial Communications
Bus & Motor
ARROW, Unknown motor
Mass
148 kg wet, ~140 kg dry
Launch date (UTC)
2020-03-21 (6 years ago)
Launch vehicle
SOYUZ-2-1B
Launch site
Tyuratam Missile And Space Complex (TTMTR)
Object type
Payload
Rocket body
Debris
Shape & HBR
Trap Box + 2 Pan, 6.7 m
Radar Cross Section
3.464 m², Large (>1 m²)

Expand to show TLE details & history
Last TLE update: 19 hours ago

TLE from 19 hours ago
0 ONEWEB-0050
1 45453U 20020AF  25296.91965629 -.00036755  00000-0 -39299-2 0  9998
2 45453  88.8068 265.4690 0008511 109.6409 250.5739 14.89045307305209
Epoch: 2025-10-23T22:04Z
TLE epoch observation values (Epoch: 2025-10-23T22:04:18.303Z)
Latitude
0.00002°
Longitude
-98.17926°
Altitude
606.048 km
Speed
7.555 km/s
True Right ascension
17h 41m 52s
True Declination
0° 00' 00"
Sunlit
Object was in daylight at epoch
Visualization orbit readout
Latitude
Unknown
Longitude
Unknown
Altitude
Unknown
Speed
Unknown
Apparent Right ascension
Unknown
Apparent Declination
Unknown
Sunlit
N/A
Visualization observer readout
Local Sidereal Time
11:57:43
Azimuth
Unknown
Elevation
Unknown
Doppler factor
Unknown
Orbital elements
Apogee altitude
603.709 km
Perigee altitude
591.834 km
Semi-major axis
6,975.908 km
Eccentricity
0.00085
Inclination
88.8068°
RAAN
265.469°
Arg. of periapsis
109.6409°
True anomaly
250.48196°
Mean anomaly
250.5739°
Eccentric anomaly
250.52792°
Mean motion
3.72514 °/min
Orbital period
96.64 mins
BSTAR
-0.0039299
Loading maneuver chart data...
Computing Atmospheric mass density...
Loading historical data...
Loading historical data...
Loading historical data...
Loading historical data...
Loading historical data...
Loading historical data...
Loading historical data...

Documentation

Showing up to 5 results
|